Погода в Кике

Россия / Республика Бурятия     52°29′47″N   108°01′28″E
темп.,
°C
ветер,
м/с
пор.,
м/с
влажн.,
%
обл.,
%
осадки,
мм/ч
давл.,
гПа
погр.,
м
4 марта, чт
чт423:00−17с2298100 0.3 102038
02:00−22с2398100 0.3 102347
05:00−26с129850 0.0 102720
08:00−28св119838 0.0 103219
11:00−21с239094 0.0 1033684
14:00−20с348697 0.1 1034693
17:00−21ссв248878 0.0 1036488
20:00−28вюв118949 0.0 103919
5 марта, пт
пт523:00−28ююв12810 0.0 104120
02:00−27юв12780 0.0 104219
05:00−26ююв22720 0.0 104220
08:00−25ююв237823 0.0 104248
11:00−17ю237976 0.0 1039269
14:00−11ю348386 0.0 1035568
17:00−10ю258362 0.0 1031606
20:00−17юв229056 0.0 103227
6 марта, сб
сб623:00−17ююв1191100 0.0 103023
02:00−18ююв229256 0.0 103022
05:00−16ю1194100 0.0 102924
08:00−16ю1296100 0.0 103147
11:00−11ююз239195 0.0 1030271
14:00−6ююз238780 0.0 1028413
17:00−6ююз239063 0.0 1026306
20:00−10ююв239150 0.0 102735
7 марта, вс
вс723:00−11ю238570 0.0 102634
02:00−12ю338957 0.0 102550
05:00−12ю33890 0.0 102551
08:00−13ю33908 0.0 102575
11:00−6ююз368858 0.0 1023306
14:00−2ююз358752 0.0 1021397
17:00−2ююз35871 0.0 1020363
20:00−8ю33911 0.0 102246
8 марта, пн
пн823:00−10ю338785 0.0 102349
02:00−11ю238878 0.0 102448
05:00−10ю2287100 0.0 102444
08:00−10ю238767 0.0 102649
11:00−3ююз34854 0.0 1023240
14:000ююз369031 0.0 1022490
17:00−1ююз36860 0.0 1020501
20:00−7ююв23922 0.0 102240